Regional Weather Roundup
Issued by NWS Nashville, TN

Home | Current Version | Previous Version | Text Only | Print | Product List | Glossary On
Versions: 1 2 3 4 5 6 7 8 9 10 11 12 13 14 15 16 17 18 19 20 21 22 23 24 25 26 27 28 29 30 31 32 33 34 35 36 37 38 39 40 41 42 43 44 45 46 47 48 49 50
000
ASUS44 KOHX 050210
RWROHX
MIDDLE TENNESSEE HOURLY WEATHER ROUNDUP
NATIONAL WEATHER SERVICE NASHVILLE TN
900 PM CDT FRI SEP 04 2015

NOTE: "FAIR" INDICATES FEW OR NO CLOUDS BELOW 12,000 FEET WITH
NO SIGNIFICANT WEATHER AND/OR OBSTRUCTIONS TO VISIBILITY.

* THESE REPORTS ARE NOT UNDER NWS QUALITY CONTROL AND MAY NOT
  REPORT WEATHER SUCH AS PRECIPITATION AND FOG.


TNZ005>011-023>034-057-059-062>066-078-080-050300
...NORTHERN MIDDLE TENNESSEE...

CITY           SKY/WX    TMP DP  RH WIND       PRES   REMARKS
CLARKSVILLE    CLEAR     78  67  68 CALM      30.03R
CROSSVILLE     CLEAR     73  66  78 CALM      30.13R
DICKSON        CLEAR     75  72  88 CALM      30.04R
LIVINGSTON     CLEAR     79  68  69 CALM      30.10
NASHVILLE      PTCLDY    83  64  52 CALM      30.04R
ROCKWOOD       MOCLDY    75  66  73 N3        30.11
SMYRNA         CLEAR     32  32 100 CALM      30.04R
$$
TNZ056-058-060-061-075>077-079-093>097-050300
...SOUTHERN MIDDLE TENNESSEE...

CITY           SKY/WX    TMP DP  RH WIND       PRES   REMARKS
COLUMBIA       CLEAR     77  77 100 CALM      30.03R
LEWISBURG      CLEAR     73  71  93 CALM      30.03R
MCMINNVILLE    CLEAR     73  73 100 CALM      30.07R
SHELBYVILLE    CLEAR     75  72  88 CALM      30.06R
TULLAHOMA      CLEAR     75  70  83 CALM      30.07R
WINCHESTER     CLEAR     73  72  94 CALM      30.06R
$$


...KEY TO REMARKS...
VSB - VISIBILITY IN MILES
WCI - WIND CHILL INDEX
HX  - HEAT INDEX



USA.gov is the U.S. government's official web portal to all federal, state and local government web resources and services.